This is the latest recevied weather packets stored in our database for station/object KE8WAY. If no packets are shown the sender has not sent any weather packets the latest 10 day(s).
| Time | Temp. | Humidity | Pressure | Rain* | Wind** | Luminosity | Snow |
|---|---|---|---|---|---|---|---|
| 1777599801 | 11.11° C | 43% | 1013.5 hPa | 0 mm | - | 0 W/m² | - |
| 1777599496 | 11.11° C | 44% | 1013.7 hPa | 0 mm | - | 0 W/m² | - |
| 1777599193 | 11.11° C | 44% | 1013.5 hPa | 0 mm | - | 0 W/m² | - |
| 1777598889 | 11.11° C | 40% | 1013.4 hPa | 0 mm | - | 0 W/m² | - |
| 1777598587 | 11.11° C | 44% | 1013.5 hPa | 0 mm | - | 0 W/m² | - |
| 1777598283 | 10.56° C | 49% | 1013.6 hPa | 0 mm | - | 0 W/m² | - |
| 1777597981 | 10.56° C | 50% | 1013.3 hPa | 0 mm | - | 0 W/m² | - |
| 1777597679 | 10.56° C | 49% | 1013.2 hPa | 0 mm | - | 0 W/m² | - |
| 1777597375 | 10.56° C | 51% | 1013.4 hPa | 0 mm | - | 0 W/m² | - |
| 1777597071 | 10.56° C | 49% | 1013.3 hPa | 0 mm | - | 0 W/m² | - |
| 1777596768 | 10.56° C | 49% | 1013.3 hPa | 0 mm | - | 0 W/m² | - |
| 1777596464 | 10.56° C | 50% | 1013.3 hPa | 0 mm | - | 0 W/m² | - |
| 1777596161 | 10.56° C | 49% | 1013.3 hPa | 0 mm | - | 0 W/m² | - |
| 1777595858 | 10.56° C | 51% | 1013.2 hPa | 0 mm | - | 0 W/m² | - |
| 1777595553 | 11.11° C | 51% | 1013.1 hPa | 0 mm | - | 0 W/m² | - |
| 1777595249 | 11.11° C | 47% | 1013.1 hPa | 0 mm | - | 2 W/m² | - |
| 1777594945 | 11.67° C | 47% | 1013.2 hPa | 0 mm | - | 3 W/m² | - |
| 1777594642 | 11.67° C | 44% | 1013.4 hPa | 0 mm | - | 5 W/m² | - |
| 1777594339 | 11.67° C | 45% | 1013.4 hPa | 0 mm | - | 6 W/m² | - |
| 1777594035 | 11.67° C | 44% | 1013.3 hPa | 0 mm | - | 11 W/m² | - |
| 1777593730 | 11.67° C | 43% | 1013.1 hPa | 0 mm | - | 14 W/m² | - |
| 1777593427 | 11.67° C | 43% | 1013.1 hPa | 0 mm | - | 16 W/m² | - |
| 1777593125 | 11.67° C | 42% | 1013.1 hPa | 0 mm | - | 24 W/m² | - |
| 1777592824 | 11.67° C | 44% | 1013.1 hPa | 0 mm | - | 32 W/m² | - |
| 1777592521 | 12.22° C | 42% | 1013.1 hPa | 0 mm | - | 40 W/m² | - |
* Rain latest hour (hover to see other rain measurements)
** Current wind speed in m/s (hover to see current wind gust speed)